Terug naar catalogus

STARLINK-32864

ActiefCommunicatieVLEO
NORAD 62862·PAYLOAD·🇺🇸 United States

Gelanceerd Feb 1, 2025 vanaf Vandenberg Space Force Base

Loading…

Volgende Passages (komende 24 uur)

TLE

VersSource: CelesTrak SupGP

Epoch: Sep 14, 2026, 21:43 UTC

1 62862C 25022J   26257.90534722 -.00006622  00000+0 -19579-3 0  2577
2 62862  53.1590 327.6340 0001251  83.7697 266.3552 15.34372172    18

Volg STARLINK-32864 in realtime met AllMySat

Download on the App Store